Total_Precipitation_Accumulation
0.34 0.31 0.33 0.31 0.34 0.34 0.78 1.42 2.07 1.73 1.59 1.82 1.64 2.00 2.24 2.26 2.37 2.37 2.29 2.22 1.94 1.71
0.69 0.65 0.65 0.75 0.94 1.04 1.27 1.68 2.56 3.28 3.01 2.83 2.96 2.52 2.72 2.84 2.63 2.67 2.53 2.08 2.23 2.08
0.86 0.81 0.72 0.91 1.47 1.87 1.48 1.85 1.98 2.60 3.46 3.62 3.48 3.49 3.22 3.12 2.69 2.56 2.39 2.16 2.04 1.88
1.51 1.78 1.66 1.50 2.00 2.29 1.97 2.13 2.81 2.72 2.77 3.19 3.20 3.74 3.85 3.41 3.14 2.90 2.62 2.25 2.02 1.64
1.32 1.88 2.38 2.56 2.70 3.37 3.75 3.12 3.23 3.13 2.49 2.29 2.33 2.61 3.47 3.35 2.81 2.63 2.33 1.95 1.77 1.65
2.07 2.02 2.29 2.31 2.29 2.50 2.96 2.69 3.00 2.94 2.75 2.40 2.24 2.34 2.40 3.04 3.03 2.37 2.17 2.04 1.90 1.75
1.51 1.90 2.11 2.38 2.55 3.12 3.11 3.27 3.44 3.65 2.62 2.16 2.00 1.82 1.72 1.75 2.25 2.55 2.16 2.20 2.21 2.04
1.11 1.31 1.36 1.51 1.77 2.03 2.47 2.86 3.40 3.57 3.11 2.36 2.17 2.04 1.74 1.60 1.56 1.95 2.38 2.26 2.17 2.13
0.89 0.91 1.01 1.03 1.12 1.15 1.23 1.29 1.62 2.24 2.93 2.92 2.37 2.59 2.29 1.94 1.73 1.73 2.00 2.67 2.49 2.09
0.77 0.87 0.70 0.71 0.74 0.78 0.89 1.17 1.19 1.16 1.46 2.03 2.18 3.03 2.96 2.88 1.85 1.80 1.83 1.89 2.46 2.29
0.61 0.47 0.47 0.50 0.62 0.66 0.84 0.90 0.93 1.07 1.05 1.17 1.39 2.01 2.30 3.40 3.18 2.16 1.89 2.01 1.92 2.17
0.72 0.77 0.84 0.64 0.59 0.61 0.70 0.84 0.81 0.73 0.73 0.76 0.73 1.10 1.37 1.81 2.34 2.78 2.67 1.93 1.81 1.82
1.17 1.03 0.87 0.68 0.61 0.63 0.60 0.66 0.67 0.83 0.98 1.02 0.69 1.03 1.04 1.54 1.70 1.84 2.13 2.74 2.18 2.20
1.29 1.23 1.02 0.80 0.60 0.58 0.72 0.83 0.87 0.85 0.83 0.82 0.89 1.03 1.21 1.24 1.48 2.03 1.91 1.70 1.95 1.88